TimeCDT,TemperatureF,Dew PointF,Humidity,Sea Level PressureIn,VisibilityMPH,Wind Direction,Wind SpeedMPH,Gust SpeedMPH,PrecipitationIn,Events,Conditions,WindDirDegrees,DateUTC
12:51 AM,66.0,54.0,65,29.94,10.0,SSW,5.8,-,N/A,,Clear,200,2011-10-17 05:51:00
1:51 AM,62.1,54.0,75,29.93,10.0,SSW,6.9,-,N/A,,Clear,200,2011-10-17 06:51:00
2:51 AM,64.0,53.1,67,29.93,10.0,SE,8.1,-,N/A,,Clear,140,2011-10-17 07:51:00
3:51 AM,68.0,57.0,68,29.92,10.0,South,12.7,-,N/A,,Clear,170,2011-10-17 08:51:00
4:51 AM,66.0,57.9,75,29.91,10.0,SSW,10.4,-,N/A,,Clear,200,2011-10-17 09:51:00
5:51 AM,66.0,61.0,84,29.90,10.0,South,12.7,-,N/A,,Clear,190,2011-10-17 10:51:00
6:51 AM,66.0,62.1,87,29.90,10.0,SSW,8.1,-,N/A,,Clear,200,2011-10-17 11:51:00
7:51 AM,66.0,63.0,90,29.89,10.0,SSW,8.1,-,N/A,,Clear,200,2011-10-17 12:51:00
8:51 AM,69.1,64.0,84,29.90,10.0,SSW,10.4,-,N/A,,Clear,210,2011-10-17 13:51:00
9:51 AM,73.0,64.9,76,29.91,10.0,SSW,12.7,-,N/A,,Clear,210,2011-10-17 14:51:00
10:51 AM,78.1,64.0,62,29.89,10.0,South,16.1,-,N/A,,Clear,190,2011-10-17 15:51:00
11:51 AM,81.0,63.0,54,29.85,10.0,South,17.3,24.2,N/A,,Clear,180,2011-10-17 16:51:00
12:51 PM,84.2,64.4,51,29.82,10.0,South,16.1,27.6,N/A,,Clear,190,2011-10-17 17:51:00
1:51 PM,86.0,63.0,46,29.76,10.0,South,16.1,23.0,N/A,,Clear,180,2011-10-17 18:51:00
2:51 PM,88.0,62.1,42,29.72,10.0,South,17.3,-,N/A,,Clear,190,2011-10-17 19:51:00
3:51 PM,88.0,59.0,37,29.69,10.0,South,16.1,-,N/A,,Clear,170,2011-10-17 20:51:00
4:51 PM,87.8,60.8,40,29.70,10.0,South,16.1,-,N/A,,Clear,180,2011-10-17 21:51:00
5:51 PM,86.0,60.1,41,29.66,10.0,South,17.3,-,N/A,,Clear,180,2011-10-17 22:51:00
6:51 PM,82.9,59.0,44,29.65,10.0,South,16.1,-,N/A,,Clear,170,2011-10-17 23:51:00
7:51 PM,81.0,59.0,47,29.66,10.0,South,12.7,-,N/A,,Clear,180,2011-10-18 00:51:00
8:51 PM,80.6,59.0,48,29.65,10.0,South,17.3,-,N/A,,Clear,170,2011-10-18 01:51:00
9:51 PM,79.0,60.1,52,29.62,10.0,South,17.3,-,N/A,,Clear,170,2011-10-18 02:51:00
10:51 PM,79.0,61.0,54,29.69,10.0,West,10.4,-,N/A,,Clear,260,2011-10-18 03:51:00
11:24 PM,75.2,64.4,69,29.75,10.0,NNW,11.5,-,0.00,,Mostly Cloudy,330,2011-10-18 04:24:00
11:51 PM,71.1,64.9,81,29.75,10.0,NNW,19.6,26.5,0.00,,Overcast,330,2011-10-18 04:51:00